DW8295 Weather Reports


Display with metric or nautical units.
time (UTC)temp
F
wind
direction
speed
MPH
gust
MPH
rain 1hr
in
rain 24hr
in
rain mn
in
humidity
%
barometer
mb
20260509174947 47 171 1.0 5.0 0.03 0.03 0.03 89 1014.6
20260509174440 47 171 1.0 6.0 0.03 0.03 0.03 88 1014.6
20260509174154 47 171 1.0 6.0 0.02 0.02 0.02 88 1014.6
20260509173430 47 200 2.0 7.0 0.02 0.02 0.02 87 1014.7
20260509172923 47 201 3.0 7.0 0.01 0.01 0.01 86 1014.6
20260509172638 48 155 2.0 7.0 0.01 0.01 0.01 86 1014.7
20260509171911 48 157 1.0 6.0 0.01 0.01 0.01 85 1014.6
20260509171404 48 161 1.0 6.0 0.00 0.00 0.00 85 1014.6
20260509170859 49 160 1.0 4.0 0.00 0.00 0.00 84 1014.6
20260509170353 49 159 1.0 6.0 0.00 0.00 0.00 83 1014.6
20260509165847 49 159 2.0 6.0 0.00 0.00 0.00 81 1014.7
20260509165557 50 215 2.0 6.0 0.00 0.00 0.00 79 1014.7
20260509164836 50 193 2.0 6.0 0.00 0.00 0.00 77 1014.7
20260509164328 50 196 2.0 7.0 0.00 0.00 0.00 75 1014.7
20260509163823 51 211 2.0 7.0 0.00 0.00 0.00 72 1014.8
20260509163316 51 238 1.0 5.0 0.00 0.00 0.00 72 1014.7
20260509162811 51 238 2.0 12.0 0.00 0.00 0.00 69 1014.8
20260509162307 51 200 4.0 12.0 0.00 0.00 0.00 69 1014.8
20260509162015 51 190 4.0 8.0 0.00 0.00 0.00 70 1014.8
20260509161511 51 184 3.0 8.0 0.00 0.00 0.00 69 1014.9
20260509160747 51 142 2.0 7.0 0.00 0.00 0.00 70 1014.8
20260509160241 51 188 2.0 8.0 0.00 0.00 0.00 70 1014.8
20260509155734 51 168 2.0 9.0 0.00 0.00 0.00 69 1014.8
20260509155228 51 165 2.0 7.0 0.00 0.00 0.00 70 1014.9
20260509154722 51 194 1.0 5.0 0.00 0.00 0.00 70 1014.8
20260509154216 51 198 1.0 7.0 0.00 0.00 0.00 68 1014.8
20260509153711 51 199 2.0 7.0 0.00 0.00 0.00 70 1014.8
20260509153205 51 188 3.0 9.0 0.00 0.00 0.00 71 1014.9
20260509152658 51 186 3.0 9.0 0.00 0.00 0.00 69 1014.9
20260509152418 51 144 3.0 9.0 0.00 0.00 0.00 69 1014.8
20260509151646 52 180 2.0 8.0 0.00 0.00 0.00 67 1014.8
20260509151140 52 192 3.0 7.0 0.00 0.00 0.00 64 1014.6
20260509150634 52 167 4.0 8.0 0.00 0.00 0.00 61 1014.5
20260509150128 52 173 3.0 8.0 0.00 0.00 0.00 58 1014.4
20260509145622 53 184 3.0 7.0 0.00 0.00 0.00 59 1014.2
20260509145338 53 190 2.0 7.0 0.00 0.00 0.00 57 1014.2
20260509144620 53 250 2.0 7.0 0.00 0.00 0.00 60 1014.2
20260509144118 53 182 3.0 7.0 0.00 0.00 0.00 60 1014.1
20260509143617 53 173 4.0 7.0 0.00 0.00 0.00 59 1014.0
20260509143117 53 150 4.0 8.0 0.00 0.00 0.00 62 1014.0
20260509142617 53 167 3.0 8.0 0.00 0.00 0.00 61 1014.0
20260509142117 53 207 3.0 7.0 0.00 0.00 0.00 63 1014.1
20260509141617 53 140 3.0 7.0 0.00 0.00 0.00 61 1014.1
20260509141117 53 205 3.0 7.0 0.00 0.00 0.00 60 1014.1
20260509140615 53 205 3.0 7.0 0.00 0.00 0.00 60 1014.2
20260509140334 53 208 2.0 6.0 0.00 0.00 0.00 59 1014.1
20260509135614 53 204 2.0 7.0 0.00 0.00 0.00 59 1014.0
20260509135114 54 157 3.0 8.0 0.00 0.00 0.00 56 1014.1
20260509134613 54 199 2.0 8.0 0.00 0.00 0.00 56 1014.1
20260509134114 54 155 2.0 7.0 0.00 0.00 0.00 56 1014.0
20260509133613 53 178 2.0 6.0 0.00 0.00 0.00 55 1014.1
20260509133112 53 180 2.0 5.0 0.00 0.00 0.00 57 1014.2
20260509132612 52 175 1.0 5.0 0.00 0.00 0.00 57 1014.3
20260509132105 51 209 3.0 9.0 0.00 0.00 0.00 58 1014.2
20260509131602 52 181 4.0 9.0 0.00 0.00 0.00 57 1014.3
20260509131101 52 168 2.0 7.0 0.00 0.00 0.00 55 1014.2
20260509130602 52 179 2.0 7.0 0.00 0.00 0.00 56 1014.2
20260509125601 52 176 2.0 9.0 0.00 0.00 0.00 63 1014.3
20260509125059 52 181 3.0 9.0 0.00 0.00 0.00 62 1014.3
20260509124559 52 152 2.0 8.0 0.00 0.00 0.00 63 1014.4
20260509124100 52 179 1.0 4.0 0.00 0.00 0.00 63 1014.4
20260509123600 53 228 0.0 4.0 0.00 0.00 0.00 65 1014.4
20260509123059 53 227 1.0 4.0 0.00 0.00 0.00 67 1014.4
20260509122558 53 227 1.0 5.0 0.00 0.00 0.00 61 1014.4
20260509122056 53 232 1.0 5.0 0.00 0.00 0.00 65 1014.3
20260509121555 53 268 0.0 3.0 0.00 0.00 0.00 69 1014.4
20260509121056 52 279 1.0 4.0 0.00 0.00 0.00 66 1014.3
20260509120555 52 279 1.0 4.0 0.00 0.00 0.00 68 1014.3
20260509120319 52 326 0.0 2.0 0.00 0.00 0.00 68 1014.3
20260509115553 51 342 0.0 2.0 0.00 0.00 0.00 68 1014.3
20260509115051 51 342 0.0 2.0 0.00 0.00 0.00 72 1014.2
20260509114551 50 355 0.0 1.0 0.00 0.00 0.00 70 1014.3
20260509114046 50 351 0.0 0.0 0.00 0.00 0.00 69 1014.2
20260509113539 49 351 0.0 1.0 0.00 0.00 0.00 69 1014.4
20260509113033 49 351 0.0 1.0 0.00 0.00 0.00 70 1014.4
20260509112528 48 351 0.0 0.0 0.00 0.00 0.00 75 1014.4
20260509112021 47 351 0.0 0.0 0.00 0.00 0.00 78 1014.4
20260509111516 45 351 0.0 0.0 0.00 0.00 0.00 82 1014.4
20260509111009 44 351 0.0 0.0 0.00 0.00 0.00 85 1014.4
20260509110504 42 351 0.0 0.0 0.00 0.00 0.00 86 1014.2
20260509105957 41 351 0.0 0.0 0.00 0.00 0.00 87 1014.2
20260509105453 40 351 0.0 0.0 0.00 0.00 0.00 87 1014.2
20260509104945 39 351 0.0 0.0 0.00 0.00 0.00 88 1014.2
20260509104702 38 351 0.0 0.0 0.00 0.00 0.00 88 1014.1
20260509103934 38 351 0.0 0.0 0.00 0.00 0.00 89 1014.0
20260509103428 37 351 0.0 0.0 0.00 0.00 0.00 89 1014.0
20260509102922 37 351 0.0 0.0 0.00 0.00 0.00 89 1013.9
20260509102415 36 351 0.0 0.0 0.00 0.00 0.00 89 1013.9
20260509101909 36 351 0.0 0.0 0.00 0.00 0.00 89 1013.7
20260509101404 35 351 0.0 0.0 0.00 0.00 0.00 89 1013.7
20260509100902 35 351 0.0 0.0 0.00 0.00 0.00 88 1013.7
20260509100401 35 351 0.0 0.0 0.00 0.00 0.00 88 1013.6
20260509100122 35 351 0.0 0.0 0.00 0.00 0.00 88 1013.6
20260509095357 35 351 0.0 0.0 0.00 0.00 0.00 88 1013.5
20260509094858 36 351 0.0 0.0 0.00 0.00 0.00 88 1013.4
20260509094357 36 351 0.0 0.0 0.00 0.00 0.00 88 1013.3
20260509094123 36 351 0.0 0.0 0.00 0.00 0.00 88 1013.2
20260509093357 36 351 0.0 0.0 0.00 0.00 0.00 87 1013.2
20260509092857 36 351 0.0 0.0 0.00 0.00 0.00 87 1013.2
20260509092356 36 351 0.0 0.0 0.00 0.00 0.00 87 1013.0
20260509091853 36 351 0.0 0.0 0.00 0.00 0.00 87 1012.9
20260509091845 37 351 0.0 0.0 0.00 0.00 0.00 87 1012.9
20260509090853 37 351 0.0 0.0 0.00 0.00 0.00 87 1012.8
20260509090348 37 351 0.0 0.0 0.00 0.00 0.00 87 1012.8
20260509085848 37 351 0.0 0.0 0.00 0.00 0.00 86 1012.8
20260509085348 37 351 0.0 0.0 0.00 0.00 0.00 86 1012.8
20260509085112 37 351 0.0 0.0 0.00 0.00 0.00 86 1012.8
20260509084347 37 351 0.0 0.0 0.00 0.00 0.00 85 1012.9
20260509083849 38 351 0.0 0.0 0.00 0.00 0.00 85 1012.8
20260509083348 38 351 0.0 0.0 0.00 0.00 0.00 85 1012.8
20260509082848 38 351 0.0 0.0 0.00 0.00 0.00 85 1012.9
20260509082612 38 351 0.0 0.0 0.00 0.00 0.00 85 1012.9
20260509081845 38 351 0.0 0.0 0.00 0.00 0.00 84 1012.9
20260509081344 39 351 0.0 0.0 0.00 0.00 0.00 84 1012.9
20260509080844 39 351 0.0 0.0 0.00 0.00 0.00 84 1013.0
20260509080343 39 351 0.0 0.0 0.00 0.00 0.00 83 1013.0
20260509075843 39 351 0.0 0.0 0.00 0.00 0.00 83 1013.0
20260509075345 40 351 0.0 0.0 0.00 0.00 0.00 83 1013.0
20260509074843 40 351 0.0 0.0 0.00 0.00 0.00 84 1013.0
20260509074344 40 351 0.0 0.0 0.00 0.00 0.00 84 1012.9
20260509073845 40 351 0.0 0.0 0.00 0.00 0.00 84 1012.9
20260509073340 40 351 0.0 0.0 0.00 0.00 0.00 84 1012.9
20260509072839 40 351 0.0 0.0 0.00 0.00 0.00 84 1012.9
20260509072339 40 351 0.0 0.0 0.00 0.00 0.00 84 1012.9
20260509071839 41 351 0.0 0.0 0.00 0.00 0.00 84 1012.9
20260509071339 41 351 0.0 0.0 0.00 0.00 0.00 83 1012.8
20260509070839 41 351 0.0 0.0 0.00 0.00 0.00 83 1012.8
20260509070340 41 351 0.0 0.0 0.00 0.00 0.00 83 1012.7
20260509065839 41 351 0.0 0.0 0.00 0.00 0.00 83 1012.7
20260509065339 41 351 0.0 0.0 0.00 0.00 0.00 82 1012.7
20260509064839 41 351 0.0 0.0 0.00 0.00 0.00 82 1012.7
20260509064602 41 351 0.0 0.0 0.00 0.00 0.00 82 1012.7
20260509063839 42 351 0.0 0.0 0.00 0.00 0.00 81 1012.7
20260509063339 42 351 0.0 0.0 0.00 0.00 0.00 81 1012.7
20260509062839 42 351 0.0 0.0 0.00 0.00 0.00 81 1012.7
20260509062339 42 351 0.0 0.0 0.00 0.00 0.00 80 1012.6
20260509061837 42 351 0.0 0.0 0.00 0.00 0.00 80 1012.6
20260509061338 43 351 0.0 0.0 0.00 0.00 0.00 80 1012.5
20260509060837 43 351 0.0 0.0 0.00 0.00 0.00 79 1012.5
20260509060330 43 351 0.0 0.0 0.00 0.00 0.00 78 1012.6
20260509055824 43 351 0.0 0.0 0.00 0.00 0.00 77 1012.5
20260509055318 44 351 0.0 0.0 0.00 0.00 0.00 77 1012.5
20260509054812 44 351 0.0 0.0 0.00 0.00 0.00 76 1012.4
20260509054304 44 351 0.0 0.0 0.00 0.00 0.00 75 1012.3
20260509053758 44 351 0.0 0.0 0.00 0.00 0.00 74 1012.3
20260509053252 44 351 0.0 0.0 0.00 0.00 0.00 74 1012.4
20260509052746 44 351 0.0 0.0 0.00 0.00 0.00 74 1012.3
20260509052244 44 351 0.0 0.0 0.00 0.00 0.00 74 1012.4
20260509051743 44 351 0.0 0.0 0.00 0.00 0.00 74 1012.4
20260509051241 44 351 0.0 1.0 0.00 0.00 0.00 74 1012.4
20260509051009 44 351 0.0 1.0 0.00 0.00 0.00 73 1012.5
20260509050508 43 351 0.0 0.0 0.00 0.00 0.00 73 1012.5
20260509045739 43 351 0.0 0.0 0.00 0.00 0.00 74 1012.5
20260509045241 43 351 0.0 0.0 0.00 0.00 0.00 73 1012.5
20260509044737 43 351 0.0 0.0 0.00 0.00 0.00 74 1012.4
20260509044456 43 351 0.0 0.0 0.00 0.00 0.00 74 1012.4
20260509043732 44 351 0.0 0.0 0.00 0.00 0.00 73 1012.4
20260509043449 44 351 0.0 0.0 0.00 0.00 0.00 73 1012.4
20260509042731 43 351 0.0 0.0 0.00 0.00 0.00 72 1012.4
20260509042231 43 351 0.0 0.0 0.00 0.00 0.00 71 1012.3
20260509042216 43 351 0.0 0.0 0.00 0.00 0.00 71 1012.3
20260509041229 43 351 0.0 0.0 0.00 0.00 0.00 72 1012.2
20260509040727 43 351 0.0 0.0 0.00 0.00 0.00 72 1012.1
20260509040227 44 351 0.0 0.0 0.00 0.00 0.00 72 1012.0
20260509035726 43 351 0.0 0.0 0.00 0.00 0.00 72 1012.0
20260509035223 43 351 0.0 0.0 0.00 0.00 0.00 71 1011.9
20260509034724 43 351 0.0 0.0 0.00 0.00 0.00 71 1011.9
20260509034218 43 351 0.0 0.0 0.00 0.00 0.00 71 1011.8
20260509033711 43 351 0.0 0.0 0.00 0.00 0.00 71 1011.8
20260509033206 43 351 0.0 0.0 0.00 0.00 0.00 72 1011.7
20260509032659 43 351 0.0 0.0 0.00 0.00 0.00 72 1011.6
20260509032154 43 351 0.0 0.0 0.00 0.00 0.00 72 1011.6
20260509031648 43 351 0.0 0.0 0.00 0.00 0.00 72 1011.5
20260509031408 43 351 0.0 0.0 0.00 0.00 0.00 73 1011.5
20260509030636 43 351 0.0 0.0 0.00 0.00 0.00 73 1011.4
20260509030129 42 351 0.0 0.0 0.00 0.00 0.00 72 1011.4
20260509025624 42 351 0.0 0.0 0.00 0.00 0.00 71 1011.4
20260509025117 42 351 0.0 0.0 0.00 0.00 0.00 70 1011.4
20260509024611 42 351 0.0 0.0 0.00 0.00 0.00 68 1011.4
20260509024106 42 351 0.0 0.0 0.00 0.00 0.00 68 1011.4
20260509023600 42 351 0.0 0.0 0.00 0.00 0.00 69 1011.4
20260509023318 42 351 0.0 0.0 0.00 0.00 0.00 69 1011.3
20260509022813 42 351 0.0 0.0 0.00 0.00 0.00 67 1011.2
20260509022042 42 351 0.0 0.0 0.00 0.00 0.00 67 1011.2
20260509021535 42 351 0.0 0.0 0.00 0.00 0.00 67 1011.1
20260509021030 42 351 0.0 0.0 0.00 0.00 0.00 66 1011.0
20260509020524 43 351 0.0 0.0 0.00 0.00 0.00 66 1010.9
20260509020018 43 351 0.0 0.0 0.00 0.00 0.00 67 1010.9
20260509015512 43 351 0.0 0.0 0.00 0.00 0.00 66 1010.7
20260509015005 43 351 0.0 0.0 0.00 0.00 0.00 65 1010.6
20260509014459 43 351 0.0 0.0 0.00 0.00 0.00 64 1010.6
20260509013955 44 351 0.0 0.0 0.00 0.00 0.00 64 1010.5
20260509013447 44 351 0.0 0.0 0.00 0.00 0.00 64 1010.5
20260509012942 44 351 0.0 0.0 0.00 0.00 0.00 64 1010.5
20260509012436 44 351 0.0 0.0 0.00 0.00 0.00 64 1010.4
20260509011929 44 351 0.0 0.0 0.00 0.00 0.00 63 1010.2
20260509011650 45 351 0.0 0.0 0.00 0.00 0.00 61 1010.1
20260509010918 45 351 0.0 0.0 0.00 0.00 0.00 62 1010.1
20260509010414 46 351 0.0 0.0 0.00 0.00 0.00 61 1010.0
20260509005906 46 351 0.0 0.0 0.00 0.00 0.00 61 1009.9
20260509005400 46 351 0.0 0.0 0.00 0.00 0.00 59 1009.8
20260509004853 47 351 0.0 0.0 0.00 0.00 0.00 58 1009.7
20260509004347 47 351 0.0 0.0 0.00 0.00 0.00 59 1009.7
20260509004105 48 351 0.0 0.0 0.00 0.00 0.00 58 1009.6
20260509003335 48 351 0.0 0.0 0.00 0.00 0.00 57 1009.4
20260509002828 49 351 0.0 0.0 0.00 0.00 0.00 56 1009.3
20260509002322 49 351 0.0 0.0 0.00 0.00 0.00 56 1009.3
20260509001816 50 351 0.0 0.0 0.00 0.00 0.00 55 1009.2
20260509001312 51 351 0.0 0.0 0.00 0.00 0.00 53 1009.1
20260509000804 51 351 0.0 0.0 0.00 0.00 0.00 50 1009.1
20260509000258 52 351 0.0 0.0 0.00 0.00 0.00 47 1009.1
20260508235752 52 351 0.0 0.0 0.00 0.00 0.00 45 1009.0
20260508235246 53 351 0.0 3.0 0.00 0.00 0.00 44 1008.9
20260508234744 53 351 0.0 3.0 0.00 0.00 0.00 42 1008.8
20260508234244 53 350 0.0 2.0 0.00 0.00 0.00 43 1008.7
20260508233742 54 350 0.0 5.0 0.00 0.00 0.00 42 1008.7
20260508233244 54 350 1.0 5.0 0.00 0.00 0.00 42 1008.7
20260508232744 54 346 2.0 8.0 0.00 0.00 0.00 40 1008.6
20260508232242 55 343 2.0 8.0 0.00 0.00 0.00 40 1008.6
20260508231743 55 325 1.0 5.0 0.00 0.00 0.00 40 1008.5
20260508231243 55 355 1.0 8.0 0.00 0.00 0.00 40 1008.5
20260508230744 55 340 2.0 8.0 0.00 0.00 0.00 40 1008.5
20260508230242 55 346 2.0 8.0 0.00 0.00 0.00 39 1008.4
20260508225742 56 355 2.0 11.0 0.00 0.00 0.00 39 1008.4
20260508225242 56 342 2.0 11.0 0.00 0.00 0.00 37 1008.2
20260508225003 56 325 1.0 6.0 0.00 0.00 0.00 38 1008.2
20260508224505 56 280 2.0 10.0 0.00 0.00 0.00 38 1008.2
20260508223744 56 263 2.0 10.0 0.00 0.00 0.00 38 1008.2
20260508223244 56 293 2.0 9.0 0.00 0.00 0.00 37 1008.1
20260508222743 56 270 3.0 10.0 0.00 0.00 0.00 38 1008.2
20260508222237 56 329 4.0 14.0 0.00 0.00 0.00 37 1008.1
20260508221731 56 293 4.0 14.0 0.00 0.00 0.00 36 1008.1
20260508221225 57 317 4.0 10.0 0.00 0.00 0.00 35 1008.0
20260508220719 58 258 4.0 12.0 0.00 0.00 0.00 37 1007.9
20260508220214 57 305 4.0 12.0 0.00 0.00 0.00 36 1007.9
20260508215710 56 298 3.0 12.0 0.00 0.00 0.00 37 1007.9
20260508215433 56 348 3.0 12.0 0.00 0.00 0.00 38 1007.8
20260508214934 57 272 3.0 12.0 0.00 0.00 0.00 37 1007.9
20260508214211 58 315 5.0 16.0 0.00 0.00 0.00 36 1007.9
20260508213928 59 346 6.0 16.0 0.00 0.00 0.00 35 1007.7
20260508213210 59 301 5.0 13.0 0.00 0.00 0.00 35 1007.7
20260508212709 59 304 4.0 10.0 0.00 0.00 0.00 34 1007.7
20260508212209 59 320 5.0 15.0 0.00 0.00 0.00 36 1007.7
20260508211709 58 304 6.0 15.0 0.00 0.00 0.00 36 1007.6
20260508211208 58 349 5.0 14.0 0.00 0.00 0.00 35 1007.6
20260508210931 59 267 5.0 14.0 0.00 0.00 0.00 36 1007.6
20260508210209 59 324 5.0 12.0 0.00 0.00 0.00 36 1007.5
20260508205709 59 0 5.0 14.0 0.00 0.00 0.00 35 1007.4
20260508205434 59 190 6.0 18.0 0.00 0.00 0.00 36 1007.4
20260508204709 58 299 6.0 19.0 0.00 0.00 0.00 37 1007.4
20260508204439 58 286 5.0 19.0 0.00 0.00 0.00 38 1007.3
20260508203708 57 307 6.0 15.0 0.00 0.00 0.00 38 1007.3
20260508203202 57 234 6.0 15.0 0.00 0.00 0.00 37 1007.3
20260508202658 57 284 5.0 14.0 0.00 0.00 0.00 38 1007.2
20260508202154 57 289 4.0 14.0 0.00 0.00 0.00 40 1007.2
20260508201917 57 228 6.0 14.0 0.00 0.00 0.00 39 1007.1
20260508201154 57 296 7.0 17.0 0.00 0.00 0.00 38 1007.1
20260508200656 57 318 7.0 17.0 0.00 0.00 0.00 37 1007.0
20260508200154 57 328 5.0 14.0 0.00 0.00 0.00 37 1006.9
20260508195914 57 321 5.0 12.0 0.00 0.00 0.00 36 1006.9
20260508195155 57 315 4.0 11.0 0.00 0.00 0.00 37 1006.8
20260508194655 57 301 4.0 14.0 0.00 0.00 0.00 38 1006.7
20260508194154 57 319 6.0 16.0 0.00 0.00 0.00 37 1006.6
20260508193654 57 355 6.0 16.0 0.00 0.00 0.00 38 1006.6
20260508193154 57 285 5.0 15.0 0.00 0.00 0.00 37 1006.7
20260508192654 57 281 5.0 11.0 0.00 0.00 0.00 35 1006.6
20260508192152 58 277 4.0 12.0 0.00 0.00 0.00 36 1006.6
20260508191653 58 314 3.0 12.0 0.00 0.00 0.00 35 1006.5
20260508191154 58 300 2.0 9.0 0.00 0.00 0.00 35 1006.4
20260508190919 58 290 2.0 7.0 0.00 0.00 0.00 36 1006.4
20260508190153 58 256 1.0 6.0 0.00 0.00 0.00 34 1006.4
20260508185652 58 288 1.0 6.0 0.00 0.00 0.00 34 1006.3
20260508185419 58 261 2.0 8.0 0.00 0.00 0.00 35 1006.3
20260508184651 58 255 4.0 10.0 0.00 0.00 0.00 34 1006.3
20260508184150 58 261 3.0 11.0 0.00 0.00 0.00 34 1006.4
20260508183646 58 328 2.0 11.0 0.00 0.00 0.00 37 1006.3
20260508183146 58 254 1.0 6.0 0.00 0.00 0.00 36 1006.3
20260508182646 58 346 2.0 9.0 0.00 0.00 0.00 38 1006.3
20260508182148 58 349 2.0 9.0 0.00 0.00 0.00 38 1006.4
20260508181647 58 272 3.0 8.0 0.00 0.00 0.00 38 1006.4
20260508181454 58 334 3.0 9.0 0.00 0.00 0.00 38 1006.3
20260508181346 58 317 2.0 9.0 0.00 0.00 0.00 39 1006.3
20260508180146 58 30 2.0 11.0 0.00 0.00 0.00 39 1006.3
20260508180127 58 268 5.0 11.0 0.00 0.00 0.00 39 1006.2